Regional Weather Roundup
Issued by NWS

Home | Current Version | Previous Version | Graphics & Text | Print | Product List | Glossary On
Versions: 1 2 3 4 5 6 7 8 9 10 11 12 13 14 15 16 17 18 19 20 21 22 23 24 25 26 27 28 29 30 31 32 33 34 35 36 37 38 39 40 41 42 43 44 45 46 47 48 49 50
000
ASUS44 KMEG 080210
RWRTN
TENNESSEE HOURLY STATE WEATHER ROUNDUP
NATIONAL WEATHER SERVICE MEMPHIS TN
800 PM CST SUN FEB 07 2016

TNZ002-004-019-021-049-052-054-088>092-080300-
WEST TENNESSEE

CITY           SKY/WX    TMP DP  RH WIND       PRES   REMARKS
MEMPHIS INTL   PTCLDY    50  31  48 SW8G22    29.99F
NWS MEMPHIS      N/A     50 N/A N/A MISG        N/A
JACKSON        CLEAR     46  29  51 SW8       29.97S
DYERSBURG      CLEAR     48  30  49 SW13      29.96F
UNION CITY     PTCLDY    46  34  61 SW8       29.92F
PARIS          CLEAR     41  28  60 SW10      29.93F
$$

TNZ008-025-027-028-033-062-065-066-080300-
NORTH MIDDLE TENNESSEE

CITY           SKY/WX    TMP DP  RH WIND       PRES   REMARKS
NASHVILLE      CLOUDY    50  19  29 SW6       29.94F
CLARKSVILLE    CLOUDY    48  24  39 SW6       29.92F
SMYRNA         CLOUDY    44  26  49 S5        29.95F
COOKEVILLE     CLEAR     34  28  80 CALM      29.93S
CROSSVILLE     CLEAR     41  20  43 SW3       29.94F
$$

TNZ061-075-076-078-094-096-097-080300-
SOUTH MIDDLE TENNESSEE

CITY           SKY/WX    TMP DP  RH WIND       PRES   REMARKS
FAYETTEVILLE   CLEAR     45  23  42 SW6       29.97F
TULLAHOMA      CLEAR     37  23  56 CALM      29.96F
WINCHESTER     CLEAR     34  27  75 CALM      29.98S
MCMINNVILLE    CLEAR     43  23  45 S5        29.95S
COLUMBIA       CLEAR     46  25  42 SW9       29.94F
SHELBYVILLE    CLEAR     45  25  45 S6        29.97S
$$

TNZ017-018-042-046-047-080300-
NORTHEAST TENNESSEE

CITY           SKY/WX    TMP DP  RH WIND       PRES   REMARKS
TRI CITIES     PTCLDY    34  24  67 CALM      29.93F
$$

TNZ012-013-036-069-073-074-080300-
CENTRAL EAST TENNESSEE

CITY           SKY/WX    TMP DP  RH WIND       PRES   REMARKS
KNOXVILLE      CLEAR     42  23  46 SW7       29.95S
OAK RIDGE      CLOUDY    40  26  57 CALM      29.96F
GATLINBURG     CLEAR     34  21  60 CALM      29.95S
MORRISTOWN     PTCLDY    41  23  48 SW3       29.93F
$$

TNZ083-085-099-080300-
SOUTHEAST TENNESSEE

CITY           SKY/WX    TMP DP  RH WIND       PRES   REMARKS
CHATTANOOGA    PTCLDY    48  21  34 SE5       29.97F
$$

SKY/WX REPORTED AS FAIR MEANS FEW OR NO CLOUDS BELOW
12 THOUSAND FEET.




USA.gov is the U.S. government's official web portal to all federal, state and local government web resources and services.